EHI
0 0 0 0 0 0 0 0 0 0 0 0 0 0 0 0 0 0 0 0 0 0 0 0 0 0 0 0 0 0 0 0 0 0 0 0 0 0 0 0 0 0 0
0 0 0 0 0 0 0 0 0 0 0 0 0 0 0 0 0 0 0 0 0 0 0 0 0 0 0 0 0 0 0 0 0 0 0 0 0 0 0 0 0 0 0
0 0 0 0 0 0 0 0 0 0 0 0 0 0 0 0 0 0 0 0 0 0 0 0 0 0 0 0 0 0 0 0 0 0 0 0 0 0 0 0 0 0 0
0 0 0 0 0 0 0 0 0 0 0 0 0 0 0 0 0 0 0 0 0 0 0 0 0 0 0 0 0 0 0 0 0 0 0 0 0 0 0 0 0 0 0
0 0 0 0 0 0 0 0 0 0 0 0 0 0 0 0 0 0 0 0 0 0 0 0 0 0 0 0 0 0 0 0 0 0 0 0 0 0 0 0 0 0 0
0 0 0 0 0 0 0 0 0 0 0 0 0 0 0 0 0 0 0 0 0 0 0 0 0 0 0 0 0 0 0 0 0 0 0 0 0 0 0 0 0 0 0
0 0 0 0 0 0 0 0 0 0 0 0 0 0 0 0 0 0 0 0 0 0 0 0 0 0 0 0 0 0 0 0 0 0 0 0 0 0 0 0 0 0 0
0 0 0 0 0 0 0 0 0 0 0 0 0 0 0 0 0 0 0 0 0 0 0 0 0 0 0 0 0 0 0 0 0 0 0 0 0 0 0 0 0 0 0
0 0 0 0 0 0 0 0 0 0 0 0 0 0 0 0 0 0 0 0 0 0 0 0 0 0 0 0 0 0 0 0 0 0 0 0 0 0 0 0 0 0 0
0 0 0 0 0 0 0 0 0 0 0 0 0 0 0 0 0 0 0 0 0 0 0 0 0 0 0 0 0 0 0 0 0 0 0 0 0 0 0 0 0 0 0
0 0 0 0 0 0 0 0 0 0 0 0 0 0 0 0 0 0 0 0 0 0 0 0 0 0 0 0 0 0 0 0 0 0 0 0 0 0 0 0 0 0 0
0 0 0 0 0 0 0 0 0 0 0 0 0 0 0 0 0 0 0 0 0 0 0 0 0 0 0 0 0 0 0 0 0 0 0 0 0 0 0 0 0 0 0
0 0 0 0 0 0 0 0 0 0 0 0 0 0 0 0 0 0 0 0 0 0 0 0 0 0 0 0 0 0 0 0 0 0 0 0 0 0 0 0 0 0 0
0 0 0 0 0 0 0 0 0 0 0 0 0 0 0 0 0 0 0 0 0 0 0 0 0 0 0 0 0 0 0 0 0 0 0 0 0 0 0 0 0 0 0
0 0 0 0 0 0 0 0 0 0 0 0 0 0 0 0 0 0 0 0 0 0 0 0 0 0 0 0 0 0 0 0 0 0 0 0 0 0 0 0 0 0 0
0 0 0 0 0 0 0 0 0 0 0 0 0 0 0 0 0 0 0 0 0 0 0 0 0 0 0 0 0 0 0 0 0 0 0 0 0 0 0 0 0 0 0
0 0 0 0 0 0 0 0 0 0 0 0 0 0 0 0 0 0 0 0 0 0 0 0 0 0 0 0 0 0 0 0 0 0 0 0 0 0 0 0 0 0 0
0 0 0 0 0 0 0 0 0 0 0 0 0 0 0 0 0 0 0 0 0 0 0 0 0 0 0 0 0 0 0 0 0 0 0 0 0 0 0 0 0 0 0
0 0 0 0 0 0 0 0 0 0 0 0 0 0 0 0 0 0 0 0 0 0 0 0 0 0 0 0 0 0 0 0 0 0 0 0 0 0 0 0 0 0 0
0 0 0 0 0 0 0 0 0 0 0 0 0 0 0 0 0 0 0 0 0 0 0 0 0 0 0 0 0 0 0 0 0 0 0 0 0 0 0 0 0 0 0
0 0 0 0 0 0 0 0 0 0 0 0 0 0 0 0 0 0 0 0 0 0 0 0 0 0 0 0 0 0 0 0 0 0 0 0 0 0 0 0 0 0 0
0 0 0 0 0 0 0 0 0 0 0 0 0 0 0 0 0 0 0 0 0 0 0 0 0 0 0 0 0 0 0 0 0 0 0 0 0 0 0 0 0 0 0
0 0 0 0 0 0 0 0 0 0 0 0 0 0 0 0 0 0 0 0 0 0 0 0 0 0 0 0 0 0 0 0 0 0 0 0 0 0 0 0 0 0 0
0 0 0 0 0 0 0 0 0 0 0 0 0 0 0 0 0 0 0 0 0 0 0 0 0 0 0 0 0 0 0 0 0 0 0 0 0 0 0 0 0 0 0
0 0 0 0 0 0 0 0 0 0 0 0 0 0 0 0 0 0 0 0 0 0 0 0 0 0 0 0 0 0 0 0 0 0 0 0 0 0 0 0 0 0 0
0 0 0 0 0 0 0 0 0 0 0 0 0 0 0 0 0 0 0 0 0 0 0 0 0 0 0 0 0 0 0 0 0 0 0 0 0 0 0 0 0 0 0
Wind_Speed
5 5 5 5 5 5 5 6 6 6 6 6 7 7 7 7 6 5 6 6 6 6 6 6 6 6 4 4 4 4 4 4 5 4 3 3 4 3 2 1 1 3 5
5 5 5 5 5 5 6 7 6 7 7 7 7 7 8 8 7 6 8 7 7 7 7 7 7 6 6 5 4 5 5 5 5 5 3 3 3 2 1 1 1 1 2
4 4 5 5 5 6 7 7 6 7 7 7 7 8 8 8 8 8 8 8 8 8 8 8 8 7 7 6 6 6 5 5 5 4 4 2 2 1 0 1 2 2 3
4 4 5 6 6 6 7 7 7 7 7 8 8 8 9 9 9 9 9 9 8 8 8 8 9 8 9 8 6 7 6 6 5 5 4 3 3 2 2 2 2 2 2
4 5 6 6 6 6 7 7 7 7 8 8 8 9 9 8 8 9 8 9 9 9 8 8 9 11 12 10 7 7 7 6 5 5 4 3 3 3 3 2 3 3 2
5 6 6 6 6 6 7 7 7 8 8 8 8 9 9 8 10 13 11 9 9 10 10 9 9 11 13 14 15 14 11 9 8 6 5 5 4 4 3 3 4 4 3
5 6 6 6 7 7 8 7 8 8 7 8 8 8 9 11 14 15 15 10 10 10 10 9 9 9 11 9 11 13 13 16 14 9 7 7 5 5 4 6 5 5 3
5 6 6 6 7 7 7 8 8 7 7 8 9 9 9 11 13 13 14 10 9 10 11 11 11 10 10 10 10 9 9 9 12 11 9 8 7 5 4 4 5 4 4
6 6 6 6 7 8 8 9 8 7 8 8 8 9 9 11 12 13 11 7 8 10 10 10 11 11 12 13 11 10 10 9 10 12 11 10 9 8 5 4 6 6 5
7 6 6 6 7 8 9 9 7 7 8 8 9 8 9 10 11 12 10 5 7 8 8 9 12 13 13 13 11 10 11 9 8 7 9 9 9 9 10 7 6 6 5
6 6 6 6 7 8 8 7 8 8 8 8 9 9 8 9 10 11 9 4 6 6 6 6 7 11 13 14 12 10 11 9 8 7 7 7 6 6 7 7 7 6 6
5 6 7 7 7 6 7 8 7 7 7 8 7 8 6 6 7 8 9 7 7 7 7 6 6 9 10 11 10 11 13 10 6 6 6 6 6 7 6 7 8 7 4
5 6 7 7 7 7 7 7 7 6 5 6 6 7 7 5 5 8 8 8 8 6 6 8 9 10 9 7 11 12 10 7 7 7 7 7 7 6 6 6 7 6 5
6 6 6 6 7 7 5 5 6 6 6 6 6 6 6 6 5 3 3 4 5 5 4 6 7 7 5 5 5 7 7 7 8 7 7 6 5 5 6 6 6 7 6
6 6 6 6 6 7 6 5 7 7 6 7 7 6 6 7 6 5 4 4 4 4 4 3 3 2 2 3 3 4 5 6 7 6 6 6 6 5 5 5 6 7 6
5 5 5 5 5 5 6 7 8 9 11 11 12 10 8 10 11 10 9 9 8 6 4 3 3 3 3 3 4 4 4 5 6 6 6 6 6 6 5 5 6 7 7
6 5 5 5 5 6 6 6 8 8 8 9 9 9 9 10 10 10 9 9 8 5 4 4 4 4 4 4 4 4 4 5 5 5 5 5 5 6 5 5 6 7 7
6 6 6 5 5 6 6 6 6 7 8 7 7 9 10 9 9 9 7 5 4 4 5 5 5 5 4 4 4 4 4 4 4 5 5 5 5 6 5 6 6 8 8
5 5 5 5 5 5 5 5 6 6 6 7 7 7 7 7 7 7 5 4 5 5 5 5 5 5 5 5 4 4 5 5 6 5 5 6 6 6 5 5 6 8 8
5 8 7 5 5 5 5 5 5 6 6 6 7 6 5 4 4 4 3 4 5 5 5 5 5 5 5 5 5 5 5 5 6 6 6 6 6 6 6 7 7 7 7
4 5 7 5 4 5 5 5 5 5 6 7 7 7 7 5 5 6 5 5 5 5 5 5 5 5 5 4 5 5 7 6 6 6 6 6 6 6 6 6 7 7 8
4 4 4 4 4 4 5 5 5 5 6 7 7 7 7 4 4 4 5 5 5 5 5 5 4 4 4 4 5 5 6 6 6 7 7 7 6 6 6 6 7 7 8
4 4 4 4 4 5 5 4 4 5 5 6 6 6 6 5 4 4 5 5 4 4 4 3 4 3 3 4 4 5 6 6 6 7 7 7 7 7 6 7 9 9 9
4 4 4 4 4 4 4 4 4 5 5 6 6 6 6 6 5 5 5 4 4 4 3 2 3 4 5 4 3 4 5 5 5 6 10 8 8 7 7 7 8 10 10
4 4 3 3 3 3 4 4 4 5 5 5 5 6 6 6 5 6 5 5 5 4 4 3 2 3 5 5 4 4 4 5 5 5 7 8 9 9 9 9 8 9 10
4 3 3 2 2 3 3 4 4 5 5 5 5 5 6 6 6 5 5 5 5 4 4 3 3 3 3 3 3 3 3 4 5 6 6 7 8 8 9 8 10 10 11
Wind_Direction
269 268 271 273 275 275 270 270 272 274 275 274 276 278 278 278 273 262 259 258 254 260 262 258 259 256 251 247 238 237 237 235 260 280 280 307 312 317 328 302 207 185 189
268 270 270 274 280 280 276 275 275 277 278 275 277 278 278 277 271 265 265 264 253 255 257 256 260 261 251 248 238 237 237 233 245 273 289 295 299 314 315 88 73 103 144
274 272 278 280 280 279 279 280 280 279 280 281 278 277 278 278 276 270 263 262 257 252 250 249 253 254 254 249 242 240 238 237 230 247 271 281 277 270 122 100 100 90 91
278 275 276 276 276 277 280 282 281 278 279 279 278 275 275 277 277 274 269 265 262 257 250 246 247 245 246 247 244 240 238 236 231 235 250 261 262 241 188 168 144 120 103
278 276 273 276 278 279 280 282 283 281 281 276 278 277 276 275 270 266 265 268 264 263 257 248 245 245 244 243 239 235 230 229 226 226 233 238 243 228 197 174 162 137 107
271 273 277 281 283 282 283 284 285 285 284 281 277 276 278 274 272 271 272 271 268 265 264 257 250 254 256 253 248 240 224 221 221 218 222 226 232 231 202 179 161 161 161
270 275 279 281 283 285 289 290 287 286 284 285 280 276 275 273 271 273 274 272 267 264 262 259 257 253 245 242 248 251 242 229 219 213 216 219 222 219 207 191 187 177 162
274 276 280 282 284 288 290 288 285 283 283 283 283 280 278 277 275 274 276 274 266 263 259 255 253 253 246 238 242 246 247 240 228 223 221 221 219 214 213 207 183 147 110
271 272 277 279 285 291 291 288 287 287 288 285 282 280 279 281 279 278 278 273 266 266 263 258 251 250 243 233 235 240 244 245 239 226 220 221 215 208 201 186 179 171 159
264 267 274 277 281 286 286 285 284 284 286 289 286 281 276 278 281 281 281 265 266 269 269 263 254 249 243 231 231 230 234 237 231 222 219 221 218 214 205 201 191 186 164
262 270 277 279 280 280 280 280 285 288 290 289 288 286 280 274 281 283 283 261 257 267 269 268 260 250 245 237 227 226 227 225 222 218 216 213 209 207 207 208 201 196 183
262 270 277 281 283 286 284 288 288 286 291 293 293 295 287 278 274 281 285 275 261 258 263 266 265 261 254 243 229 228 224 218 218 211 211 209 206 206 206 204 204 200 192
260 270 279 287 286 282 280 287 294 291 288 292 292 292 294 292 282 276 283 288 282 264 260 263 269 268 260 250 234 225 215 210 208 207 210 209 207 205 198 198 199 187 162
260 275 284 291 295 294 286 279 281 286 290 293 292 290 291 291 288 285 288 292 291 284 280 279 277 272 254 243 232 217 211 207 204 207 206 204 194 192 197 192 191 179 163
258 273 284 284 286 294 294 281 276 270 259 268 279 277 282 288 283 274 277 279 276 279 292 280 267 261 253 242 227 211 204 201 205 206 203 196 189 191 196 195 189 181 174
258 272 277 285 289 291 300 305 280 265 274 267 255 255 261 255 271 281 277 272 272 273 264 259 263 258 253 243 231 217 206 203 200 198 200 195 190 191 193 193 192 188 178
244 263 274 281 288 294 299 304 310 312 303 291 280 276 266 269 271 274 274 276 273 253 240 251 252 250 249 243 232 222 215 206 196 194 193 192 192 194 191 193 195 188 181
242 259 267 272 280 286 289 291 291 298 308 309 302 292 287 280 272 268 264 273 266 230 235 246 249 248 242 236 230 224 219 205 201 201 194 191 192 192 192 195 197 192 179
241 254 263 271 275 278 283 288 290 291 290 294 300 302 298 292 282 268 241 238 257 259 249 247 247 246 243 235 227 223 219 209 204 200 199 196 193 192 195 198 197 186 177
243 259 271 275 282 286 289 293 297 299 299 297 296 299 311 311 300 291 250 243 250 256 256 250 246 242 240 235 224 219 215 213 206 203 201 199 195 194 197 199 194 187 181
238 262 276 280 277 283 289 292 295 298 298 298 296 294 294 290 289 291 286 272 258 257 256 251 245 240 235 229 223 219 216 210 205 203 201 197 194 195 198 198 194 186 176
227 247 260 270 278 284 290 290 293 296 299 301 303 306 305 292 287 290 291 288 280 268 258 251 250 244 235 229 222 218 216 212 204 201 199 194 191 194 192 192 187 177 174
221 243 259 267 274 287 294 295 298 300 301 303 306 310 312 307 298 293 294 296 294 290 278 252 250 253 244 233 225 220 219 217 209 198 192 191 190 191 189 189 184 176 176
217 235 251 266 277 285 294 301 303 303 304 306 311 315 315 313 310 306 303 302 304 300 293 270 254 259 262 250 233 227 227 221 209 202 197 192 189 188 186 186 183 180 177
211 226 241 256 273 285 295 303 308 311 312 313 316 319 322 325 326 323 322 320 319 316 311 300 280 270 271 265 250 236 222 214 209 201 194 193 191 189 187 184 181 178 176
199 215 232 249 266 282 294 304 312 317 317 318 320 322 326 328 329 328 326 326 328 328 327 320 317 309 296 280 263 243 217 210 207 206 197 191 190 191 187 184 181 180 178